Weather History for Cheboygan, MI

Change the Weather History Date:

Wednesday, May 15, 2013

  Actual Average (KPLN) Record (KPLN)
Temperature  
Mean Temperature 56 °F -  
Max Temperature 72 °F 66 °F 95 °F (1998)
Min Temperature 40 °F 41 °F 22 °F (1953)
Degree Days  
Heating Degree Days 9    
Growing Degree Days 6 (Base 50)    
Moisture  
Dew Point 39 °F    
Average Humidity 53    
Maximum Humidity 91    
Minimum Humidity 23    
Precipitation  
Precipitation 0.00 in - - ()
Sea Level Pressure  
Sea Level Pressure 29.62 in    
Wind  
Wind Speed 11 mph (West)    
Max Wind Speed 29 mph    
Max Gust Speed 36 mph    
Visibility 9 miles    
Events      
Averages and records for this station are not official NWS values.
T = Trace of Precipitation, MM = Missing Value Source: NWS Daily Summary

Daily Weather History Graph

Daily Weather History Graph

Search for Another Location

Airport:

Trip Planner

Search our weather history database for the weather conditions in past years. The results will help you decide how hot, cold, wet, or windy it might be!

Date:

Astronomy

May. 15, 2013 Rise Set
Actual Time 6:06 AM EDT 9:02 PM EDT
Civil Twilight 5:31 AM EDT 9:37 PM EDT
Nautical Twilight 4:47 AM EDT 10:22 PM EDT
Astronomical Twilight 3:54 AM EDT 11:15 PM EDT
Moon 10:44 AM EDT (5/15) 12:46 AM EDT (5/15)
Length of Visible Light 16h 05m
Length of Day
14h 56m
Waxing Crescent, 26% of the Moon is Illuminated
May 15
Waxing Crescent
May 18
First Quarter
May 25
Full
May 31
Last Quarter
Jun 8
New

Hourly Weather History & Observations

Time (EDT) Temp. Windchill Dew Point Humidity Pressure Visibility Wind Dir Wind Speed Gust Speed Precip Events Conditions
12:15 AM 53.1 °F - 41.4 °F 64% 29.63 in 10.0 mi SE 9.2 mph - N/A   Scattered Clouds
12:35 AM 52.2 °F - 41.0 °F 66% 29.62 in 10.0 mi SE 6.9 mph - N/A   Clear
12:55 AM 51.1 °F - 40.6 °F 67% 29.61 in 10.0 mi SE 5.8 mph - N/A   Clear
1:15 AM 49.6 °F - 41.0 °F 72% 29.60 in 10.0 mi ESE 6.9 mph - N/A   Clear
1:35 AM 48.7 °F - 40.6 °F 74% 29.59 in 10.0 mi ESE 6.9 mph - N/A   Clear
1:55 AM 47.8 °F - 40.5 °F 76% 29.57 in 10.0 mi ESE 8.1 mph - N/A   Scattered Clouds
2:15 AM 48.2 °F - 40.5 °F 75% 29.55 in 10.0 mi ESE 6.9 mph - N/A   Scattered Clouds
2:35 AM 47.8 °F - 40.3 °F 75% 29.52 in 10.0 mi ESE 6.9 mph - N/A   Clear
2:55 AM 47.5 °F - 40.3 °F 76% 29.50 in 10.0 mi ESE 8.1 mph - N/A   Clear
3:15 AM 47.5 °F - 40.5 °F 77% 29.48 in 10.0 mi SE 8.1 mph - N/A   Clear
3:35 AM 47.3 °F - 40.5 °F 77% 29.47 in 10.0 mi ESE 6.9 mph - N/A   Clear
3:55 AM 46.4 °F 43.5 °F 40.5 °F 80% 29.47 in 10.0 mi ESE 5.8 mph - N/A   Clear
4:15 AM 46.2 °F - 40.3 °F 80% 29.46 in 10.0 mi Calm Calm - N/A   Clear
4:35 AM 45.7 °F - 40.1 °F 81% 29.45 in 10.0 mi Calm Calm - N/A   Clear
4:55 AM 44.6 °F - 39.6 °F 82% 29.45 in 10.0 mi Calm Calm - N/A   Clear
5:15 AM 42.1 °F 40.2 °F 38.3 °F 86% 29.45 in 7.0 mi NNW 3.5 mph - N/A   Clear
5:35 AM 41.9 °F - 38.8 °F 89% 29.46 in 5.0 mi Calm Calm - N/A   Clear
5:55 AM 41.7 °F 39.8 °F 39.2 °F 91% 29.47 in 3.0 mi West 3.5 mph - N/A   Clear
6:15 AM 40.1 °F 38.0 °F 37.8 °F 91% 29.48 in 2.5 mi WNW 3.5 mph - N/A   Clear
6:35 AM 40.8 °F 37.8 °F 38.5 °F 91% 29.49 in 2.5 mi WNW 4.6 mph - N/A   Clear
6:55 AM 42.3 °F 38.6 °F 39.9 °F 91% 29.51 in 2.5 mi West 5.8 mph - N/A   Clear
7:15 AM 44.8 °F 39.9 °F 41.5 °F 88% 29.52 in 5.0 mi West 9.2 mph - N/A   Clear
7:34 AM 46.9 °F - 42.3 °F 84% 29.53 in 7.0 mi WNW 10.4 mph - N/A   Clear
7:55 AM 48.2 °F - 42.1 °F 79% 29.53 in 7.0 mi WNW 10.4 mph 16.1 mph N/A   Clear
8:15 AM 50.5 °F - 42.8 °F 75% 29.55 in 10.0 mi West 12.7 mph 17.3 mph N/A   Clear
8:35 AM 53.4 °F - 42.8 °F 67% 29.56 in 10.0 mi WNW 12.7 mph 21.9 mph N/A   Clear
8:55 AM 55.9 °F - 43.0 °F 62% 29.56 in 10.0 mi WNW 24.2 mph 32.2 mph N/A   Clear
9:15 AM 56.8 °F - 43.5 °F 61% 29.57 in 10.0 mi WNW 17.3 mph 27.6 mph N/A   Mostly Cloudy
9:35 AM 56.8 °F - 43.9 °F 62% 29.58 in 10.0 mi WNW 19.6 mph 29.9 mph N/A   Scattered Clouds
9:55 AM 57.0 °F - 43.7 °F 61% 29.59 in 10.0 mi WNW 20.7 mph 33.4 mph N/A   Clear
10:15 AM 58.8 °F - 44.8 °F 60% 29.60 in 10.0 mi NW 19.6 mph 31.1 mph N/A   Clear
10:35 AM 59.9 °F - 44.6 °F 57% 29.61 in 10.0 mi WNW 18.4 mph 28.8 mph N/A   Clear
11:15 AM 61.5 °F - 44.8 °F 54% 29.63 in 10.0 mi WNW 19.6 mph 28.8 mph N/A   Clear
11:35 AM 62.8 °F - 45.3 °F 53% 29.64 in 10.0 mi WNW 15.0 mph 29.9 mph N/A   Clear
11:55 AM 64.4 °F - 45.1 °F 50% 29.65 in 10.0 mi West 19.6 mph 27.6 mph N/A   Clear
12:15 PM 65.1 °F - 45.7 °F 49% 29.66 in 10.0 mi NW 21.9 mph 26.5 mph N/A   Clear
12:35 PM 66.2 °F - 45.3 °F 47% 29.66 in 10.0 mi WNW 17.3 mph 29.9 mph N/A   Clear
12:55 PM 66.9 °F - 43.0 °F 42% 29.66 in 10.0 mi WNW 20.7 mph 31.1 mph N/A   Clear
1:15 PM 68.5 °F - 41.9 °F 38% 29.67 in 10.0 mi West 23.0 mph 31.1 mph N/A   Clear
1:35 PM 68.5 °F - 40.6 °F 36% 29.67 in 10.0 mi WNW 26.5 mph 32.2 mph N/A   Clear
1:55 PM 69.1 °F - 39.0 °F 33% 29.68 in 10.0 mi West 20.7 mph 34.5 mph N/A   Clear
2:15 PM 69.6 °F - 38.1 °F 32% 29.68 in 10.0 mi WNW 28.8 mph 35.7 mph N/A   Clear
2:35 PM 70.9 °F - 38.8 °F 31% 29.68 in 10.0 mi WNW 21.9 mph 31.1 mph N/A   Clear
2:55 PM 70.5 °F - 37.4 °F 30% 29.68 in 10.0 mi West 20.7 mph 35.7 mph N/A   Clear
3:15 PM 71.6 °F - 38.5 °F 30% 29.68 in 10.0 mi WNW 16.1 mph 27.6 mph N/A   Clear
3:35 PM 70.9 °F - 36.7 °F 29% 29.68 in 10.0 mi WNW 15.0 mph 25.3 mph N/A   Clear
3:55 PM 71.6 °F - 35.6 °F 27% 29.68 in 10.0 mi WNW 20.7 mph 26.5 mph N/A   Clear
4:14 PM 71.8 °F - 34.5 °F 26% 29.68 in 10.0 mi West 20.7 mph 26.5 mph N/A   Clear
4:35 PM 71.8 °F - 34.3 °F 25% 29.69 in 10.0 mi West 17.3 mph 29.9 mph N/A   Clear
4:55 PM 72.3 °F - 34.2 °F 25% 29.68 in 10.0 mi WNW 15.0 mph 23.0 mph N/A   Clear
5:15 PM 72.5 °F - 34.2 °F 25% 29.68 in 10.0 mi West 16.1 mph 27.6 mph N/A   Clear
5:35 PM 72.1 °F - 34.3 °F 25% 29.69 in 10.0 mi West 19.6 mph 25.3 mph N/A   Clear
5:55 PM 72.5 °F - 35.8 °F 26% 29.69 in 10.0 mi West 17.3 mph 24.2 mph N/A   Clear
6:15 PM 71.6 °F - 34.2 °F 25% 29.70 in 10.0 mi West 13.8 mph 29.9 mph N/A   Clear
6:35 PM 71.1 °F - 32.2 °F 24% 29.70 in 10.0 mi WNW 18.4 mph 28.8 mph N/A   Clear
6:55 PM 70.9 °F - 31.5 °F 23% 29.71 in 10.0 mi West 11.5 mph 21.9 mph N/A   Clear
7:15 PM 70.2 °F - 30.4 °F 23% 29.71 in 10.0 mi WNW 13.8 mph 26.5 mph N/A   Clear
7:34 PM 69.4 °F - 29.8 °F 23% 29.71 in 10.0 mi WNW 15.0 mph 23.0 mph N/A   Clear
7:55 PM 68.9 °F - 30.6 °F 24% 29.72 in 10.0 mi West 11.5 mph - N/A   Clear
8:15 PM 67.1 °F - 32.0 °F 27% 29.73 in 10.0 mi West 9.2 mph 19.6 mph N/A   Clear
8:35 PM 66.0 °F - 31.6 °F 28% 29.73 in 10.0 mi West 8.1 mph - N/A   Clear
8:55 PM 64.4 °F - 32.0 °F 30% 29.73 in 10.0 mi WSW 5.8 mph - N/A   Clear
9:15 PM 62.2 °F - 32.2 °F 32% 29.74 in 10.0 mi WSW 6.9 mph - N/A   Clear
9:35 PM 61.0 °F - 34.0 °F 36% 29.74 in 10.0 mi SW 6.9 mph - N/A   Clear
9:55 PM 59.2 °F - 35.1 °F 40% 29.74 in 10.0 mi SW 6.9 mph - N/A   Clear
10:15 PM 58.5 °F - 36.0 °F 43% 29.75 in 10.0 mi SW 6.9 mph - N/A   Clear
10:35 PM 58.1 °F - 36.0 °F 44% 29.74 in 10.0 mi SW 8.1 mph - N/A   Clear
10:55 PM 56.7 °F - 36.0 °F 46% 29.74 in 10.0 mi SW 6.9 mph - N/A   Clear
11:15 PM 55.9 °F - 36.1 °F 47% 29.74 in 10.0 mi SW 6.9 mph - N/A   Clear
11:35 PM 55.4 °F - 36.7 °F 49% 29.73 in 10.0 mi SW 8.1 mph - N/A   Clear
11:55 PM 54.3 °F - 37.4 °F 53% 29.73 in 10.0 mi SW 8.1 mph - N/A   Clear